Home > Weather > Oceanside > Past weeks

Flag for U.S.A. Weather for the Past 2 Weeks in Oceanside, California, U.S.A.

Now
67 °F

Sunny.


Feels Like: 67 °F
Forecast: 47 / 77 °F
Wind: 8 mph from West

Location: Oceanside Weather Reporting Station

Current Time: Feb 6, 2016 at 6:21:41 PM

Latest Report: Feb 6, 2016 at 4:52 PM


Visibility: 10 mi

Pressure: 30.11 "Hg

Humidity: 23%

Dew point: 28 °F

Location of OceansideLocation

Historic Weather in Oceanside — Graph

°F

Oceanside Temperature Yesterday

Maximum temperature yesterday: 78 °F (at 1:52 PM)
Minimum temperature yesterday: 41 °F (at 5:52 AM)
Average temperature yesterday: 55 °F

High & Low Weather Summary for the Past Weeks

 TemperatureHumidityPressure
High78 °F (Feb 5, 1:52 PM)93% (Jan 23, 4:52 AM)30.36 "Hg (Jan 23, 4:52 AM)
Low32 °F (Feb 2, 3:52 AM)13% (Feb 5, 10:52 AM)29.69 "Hg (Jan 31, 2:00 PM)
Average53 °F62%30.12 "Hg
* Reported Jan 22 3:52 PM — Feb 6 3:52 PM, Oceanside, Weather by CustomWeather, © 2016

Note: Actual official high and low records may vary slightly from our data, if they occured in-between our weather recording intervals... More about our weather records

Advertising

Oceanside Weather History for the Previous 24 Hours

 ConditionsComfort  
Time TempWeatherWind HumidityBarometerVisibility
3:52 PM
Sat, Feb 6
70 °FSunny.9 mph19%30.11 "Hg10 mi
2:52 PM72 °FSunny.10 mph19%30.11 "Hg10 mi
1:52 PM72 °FSunny.16 mph20%30.13 "Hg10 mi
12:52 PM73 °FSunny.9 mph24%30.16 "Hg10 mi
11:52 AM73 °FSunny.10 mph30%30.20 "Hg10 mi
10:52 AM76 °FSunny.8 mph16%30.23 "Hg10 mi
9:52 AM67 °FSunny.3 mph27%30.25 "Hg10 mi
8:52 AM59 °FSunny.No wind36%30.26 "Hg10 mi
7:52 AM50 °FSunny.5 mph48%30.25 "Hg10 mi
6:52 AM47 °FSunny.7 mph46%30.24 "Hg10 mi
5:52 AM41 °FClear.No wind60%30.24 "Hg10 mi
4:52 AM40 °FClear.3 mph65%30.25 "Hg10 mi
3:52 AM43 °FClear.No wind56%30.25 "Hg10 mi
2:52 AM42 °FClear.6 mph62%30.25 "Hg10 mi
1:52 AM43 °FClear.6 mph62%30.26 "Hg10 mi
12:52 AM40 °FClear.5 mph68%30.25 "Hg10 mi
11:52 PM
Fri, Feb 5
42 °FClear.3 mph65%30.26 "Hg10 mi
10:52 PM44 °FClear.5 mph60%30.26 "Hg10 mi
9:52 PM47 °FClear.No wind59%30.25 "Hg10 mi
8:52 PM46 °FClear.No wind68%30.25 "Hg10 mi
7:52 PM50 °FClear.No wind74%30.25 "Hg10 mi
6:52 PM54 °FClear.No wind72%30.24 "Hg10 mi
Weather by CustomWeather, © 2016

See weather overviewHow to use our weather pages